Regional Weather Roundup
Issued by NWS

Home | Current Version | Previous Version | Graphics & Text | Print | Product List | Glossary On
Versions: 1 2 3 4 5 6 7 8 9 10 11 12 13 14 15 16 17 18 19 20 21 22 23 24 25 26 27 28 29 30 31 32 33 34 35 36 37 38 39 40 41 42 43 44 45 46 47 48 49 50
000
ASUS43 KLOT 012012
RWRIL

ILLINOIS REGIONAL WEATHER ROUNDUP
NATIONAL WEATHER SERVICE CHICAGO/ROMEOVILLE IL
300 PM CDT WED JUL 01 2015

NOTE: "FAIR" INDICATES FEW OR NO CLOUDS BELOW 12,000 FEET WITH NO
SIGNIFICANT WEATHER AND/OR OBSTRUCTIONS TO VISIBILITY.

* THESE STATIONS ARE NOT UNDER NWS QUALITY CONTROL. THEY ALSO MAY NOT
  REPORT WEATHER SUCH AS PRECIPITATION OR FOG.

ILZ001-002-007-009-015-016-024-012100-
NORTHWEST ILLINOIS

CITY           SKY/WX    TMP DP  RH WIND       PRES   REMARKS
MOLINE         CLOUDY    71  60  68 E12       29.92S
STERLING*      MOSUNNY   73  59  60 E8        29.94F
SAVANNA*       PTSUNNY   73  55  52 NE8       29.94F
$$

ILZ003-004-008-010-011-017-018-012100-
NORTH CENTRAL ILLINOIS

CITY           SKY/WX    TMP DP  RH WIND       PRES   REMARKS
ROCKFORD       CLOUDY    73  50  44 N3        29.96F
FREEPORT*      MOSUNNY   70  55  59 E8        29.97F
ROCHELLE*      PTSUNNY   71  59  65 NE8       29.96F
DE KALB*       PTSUNNY   68  56  63 NW5       29.97S
PERU*          CLOUDY    72  60  67 NE8       29.94F
$$

ILZ005-006-012>014-019>023-012100-
NORTHEAST ILLINOIS

CITY           SKY/WX    TMP DP  RH WIND       PRES   REMARKS
CHICAGO-OHARE  CLOUDY    65  52  62 E12       29.97R
CHICAGO-MIDWAY CLOUDY    66  53  63 NE12      29.97R
AURORA         PTSUNNY   72  55  55 N8        29.96R
LANSING*       MOSUNNY   63  51  65 NE9       29.97R
JOLIET*        PTSUNNY   72  60  66 CALM      29.95R
WAUKEGAN       MOSUNNY   58  50  75 E10       29.98S
DUPAGE AIRPORT PTSUNNY   72  55  55 VRB3      29.95S
KANKAKEE*      CLOUDY    70  61  73 NE8       29.95R
WHEELING       MOSUNNY   61  49  64 E9        29.98F
MORRIS*        PTSUNNY   72  59  63 E5        29.93S
ROMEOVILLE*    PTSUNNY   71  56  58 CALM      29.95R
NORTHERLY ISL    N/A     59  50  72 NE9         N/A
$$

LMZ740>746-012100-
SOUTHERN LAKE MICHIGAN

STATION/POSITION SKY/WX   TEMP    WIND        PRES    VSBY  WAVE
                          AIR SEA DIR/SP/G                  HT/PER
                          (F)     (DEG/KT/KT) (MB)    (MI)  (FT/S)
HARRISON CRIB              56      60/  9/ 11   N/A
BURNHAM HARBOR             59      30/  8/ 11   N/A
CALUMET HARBOR             58      50/  8/ 10   N/A
BURNS HARBOR               60      40/ 11/ 13 1015.6F
MICHIGAN CITY              57      10/ 10/ 12   N/A
MICHIGAN CITY 6N           58 65   40/ 10/ 12   N/A           3/ 5
ST. JOSEPH                 58 63                N/A           3/ 5
$$

ILZ025>027-034>036-040-047-049-050-058-095>099-012100-
WEST-CENTRAL ILLINOIS

CITY           SKY/WX    TMP DP  RH WIND       PRES   REMARKS
QUINCY         CLOUDY    80  69  69 SW8       29.88S HX  83
GALESBURG*     PTSUNNY   74  64  70 E5        29.91S
MACOMB*        PTSUNNY   76  69  77 NE9       29.91F
JACKSONVILLE*  CLOUDY    83  69  63 SW5       29.87F HX  86
PITTSFIELD*    CLOUDY    82  68  64 SW5       29.89S HX  84
$$

ILZ028>032-037-038-041>044-048-051>054-059>061-012100-
CENTRAL ILLINOIS

CITY           SKY/WX    TMP DP  RH WIND       PRES   REMARKS
PONTIAC        PTSUNNY   73  65  74 NE8       29.94S
BLOOMINGTON    MOSUNNY   77  66  68 NE10      29.93F
DECATUR        PTSUNNY   77  69  76 NE6       29.89F
PEORIA         PTSUNNY   78  64  61 E9        29.90F HX  80
LACON*         PTSUNNY   73  63  70 NE9       29.91F
LINCOLN*       PTSUNNY   78  67  69 NE10      29.89F HX  80
SPRINGFIELD    PTSUNNY   80  69  69 NE7       29.88F HX  83
TAYLORVILLE    PTSUNNY   79  70  73 NW3       29.87F HX  81
$$

ILZ033-039-045-046-055>057-062-063-012100-
EAST-CENTRAL ILLINOIS

CITY           SKY/WX    TMP DP  RH WIND       PRES   REMARKS
CHAMPAIGN      CLOUDY    74  66  76 E5        29.91S
DANVILLE*      CLOUDY    71  65  81 E3        29.89F
RANTOUL*       PTSUNNY   74  65  73 E5        29.92S
MATTOON        MOSUNNY   78  70  76 N7        29.88S HX  80
PARIS*         PTSUNNY   75  69  79 NE8       29.90F
$$

ILZ079-100>102-012100-
SOUTHWEST ILLINOIS

CITY           SKY/WX    TMP DP  RH WIND       PRES   REMARKS
ALTON          MOSUNNY   81  75  83 W7        29.88F HX  86
BELLEVILLE     MOSUNNY   83  72  68 VRB2      29.86F HX  88
CAHOKIA*       MOSUNNY   86  68  54 NW8       29.86F HX  89
SPARTA*        MOSUNNY   81  68  64 NW5       29.88F HX  84
$$

ILZ064>066-069>071-074>076-080>082-084>086-088>090-092>094-012100-
SOUTH-CENTRAL ILLINOIS

CITY           SKY/WX    TMP DP  RH WIND       PRES   REMARKS
CARBONDALE     MOSUNNY   81  67  62 NW6       29.87F HX  83
CAIRO*         CLOUDY    80  69  70 S6        29.89R HX  82
EFFINGHAM*     MOSUNNY   82  64  54 SW8       29.89F HX  83
MARION         MOSUNNY   81  68  65 NE6       29.88F HX  83
MT. VERNON     MOSUNNY   82  66  57 W8        29.88F HX  85
CENTRALIA*     PTSUNNY   80  66  62 CALM      29.88F HX  82
SALEM*         PTSUNNY   83  68  60 W6        29.88F HX  85
METROPOLIS*    CLOUDY    78  69  73 S6        29.89S HX  81
$$

ILZ067-068-072-073-078-083-087-091-012100-
SOUTHEAST ILLINOIS

CITY           SKY/WX    TMP DP  RH WIND       PRES   REMARKS
LAWRENCEVILLE  PTSUNNY   79  71  76 SW8       29.89F HX  82
FLORA*         PTSUNNY   80  69  68 W7        29.89F HX  83
FAIRFIELD*     PTSUNNY   80  69  68 NW3       29.87F HX  82
HARRISBURG*    PTSUNNY   80  65  60 SW3       29.89F HX  82
ROBINSON*      MOSUNNY   79  70  74 E6        29.89S HAZE    HX  82
CARMI*         PTSUNNY   81  65  57 N3        29.88F HX  83
$$

ABBREVIATIONS USED IN REMARKS
   TC - TEMPERATURE IN CELSIUS
  WCI - WIND CHILL INDEX
   HX - HEAT INDEX
  VSB - VISIBILITY
$$




USA.gov is the U.S. government's official web portal to all federal, state and local government web resources and services.